Location: Igloolik
(69.3800°N, 81.8000°W)
Time: 12:12:12
(UTC-05:00)

Amateur Radio Satellites - All Passes

Search period start: 01 October 2016 11:42
Search period end: 02 October 2016 11:42
Location: Igloolik, 69.3800°N, 81.8000°W

Satellite Date Start Highest point End Downlink Frequencies (MHz)
Time Altitude Azimuth
AIST 1 01 Oct 11:43:40 11:46:44 18° 22° (NNE) 11:49:46
CINEMA 3 01 Oct 11:44:41 11:47:54 22° 329° (NNW) 11:51:07 145.822/145.860
NOAA 15 01 Oct 11:45:52 11:50:07 25° 352° (N) 11:54:22 137.62
DELFI C3 01 Oct 11:46:42 11:50:43 61° 301° (WNW) 11:54:42 145.870
UNISAT 6 01 Oct 11:47:23 11:49:23 13° 286° (WNW) 11:51:24 437.425
AISAT 01 Oct 11:47:40 11:51:29 27° 91° (E) 11:55:15 437.250
COMPASS 1 01 Oct 11:48:31 11:52:10 28° 320° (NW) 11:55:49 437.405
BUGSAT 1 01 Oct 11:48:46 11:52:42 47° 258° (WSW) 11:56:38 437.445
NOAA 18 01 Oct 11:49:00 11:53:33 28° 347° (NNW) 11:58:06 137.9125
LilacSat-2 01 Oct 11:51:12 11:52:59 13° 352° (N) 11:54:46 437.200
Gurwin Techsat 1B 01 Oct 11:51:26 11:56:41 62° 53° (NE) 12:01:58 435.225
YUBILEINY 01 Oct 11:52:21 12:01:05 66° 55° (NE) 12:09:45 435.215
PCSat 01 Oct 11:54:14 11:58:48 28° 232° (SW) 12:03:21 145.827
Oscar 19 01 Oct 12:01:37 12:06:51 90° 345° (NNW) 12:12:06 437.125/150
HO-68 01 Oct 12:03:04 12:09:52 48° 330° (NNW) 12:16:39 435.675
DUCHIFAT 1 01 Oct 12:03:32 12:07:06 27° 269° (W) 12:10:41 145.980
50 SAT 01 Oct 12:05:22 12:08:39 29° 95° (E) 12:11:54 437.505
DX 1 01 Oct 12:09:26 12:13:10 27° 91° (E) 12:16:52 434.975-435.025
QB50P1 01 Oct 12:10:25 12:13:49 23° 272° (W) 12:17:15 145.935-145.965
Cosmos 2491 01 Oct 12:10:39 12:17:29 26° 62° (ENE) 12:24:19 435.465 / 435.565
FUNcube-1 01 Oct 12:11:12 12:15:06 36° 314° (NW) 12:19:04 145.935
Cosmos 2504 01 Oct 12:12:15 12:19:16 49° 45° (NE) 12:26:37 435.465 / 435.565
CUTE-I 01 Oct 12:14:54 12:19:06 24° 356° (N) 12:23:20 437.470
GONETS M04 01 Oct 12:16:00 12:24:20 42° 334° (NNW) 12:32:39
Cubesat XI-IV 01 Oct 12:16:01 12:20:14 24° 357° (N) 12:24:28 437.490
TISAT 1 01 Oct 12:17:50 12:19:50 13° 76° (ENE) 12:21:50 437.305
SEEDS 01 Oct 12:24:36 12:27:49 21° 332° (NNW) 12:31:02 437.485
CUBEBUG 1 01 Oct 12:24:45 12:29:01 47° 102° (ESE) 12:33:13 437.445
POPSAT HIP 1 01 Oct 12:24:47 12:27:56 20° 275° (W) 12:31:05 437.405
CUBEBUG 2 01 Oct 12:25:38 12:29:02 24° 326° (NW) 12:32:28 437.445
O/OREOS (USA 219) 01 Oct 12:26:56 12:31:35 70° 16° (NNE) 12:36:13 437.305
CUTE 1.7 + AOD 2 01 Oct 12:30:30 12:33:33 19° 337° (NNW) 12:36:37 437.475
VELOX 1 01 Oct 12:30:53 12:35:08 44° 100° (E) 12:39:22 145.980
CANX-2 01 Oct 12:32:33 12:35:33 19° 339° (NNW) 12:38:33 2200.000
UWE-3 01 Oct 12:35:19 12:38:49 25° 325° (NW) 12:42:22 435.000/436.395/437.385
AAUSAT CUBESAT 2 01 Oct 12:35:42 12:38:59 22° 329° (NNW) 12:42:14 437.432
GOMX 1 01 Oct 12:36:06 12:39:20 18° 6° (N) 12:42:26 467.674
DOVE 4 01 Oct 12:38:14 12:40:57 16° 357° (N) 12:43:36 437.250
JAS-2 01 Oct 12:38:22 12:45:05 38° 274° (W) 12:52:16 435.910
NANOSAT C BR1 01 Oct 12:38:45 12:41:37 18° 278° (W) 12:44:29 145.865
HUMSAT D 01 Oct 12:40:58 12:45:02 48° 307° (NW) 12:49:10 437.325/437.525
AUBIESAT-1 01 Oct 12:42:47 12:45:04 17° 98° (E) 12:47:19 437.475
Oscar 11 01 Oct 12:46:00 12:49:43 28° 323° (NW) 12:53:26 145.826/435.025
SPROUT 01 Oct 12:46:46 12:50:51 41° 99° (E) 12:54:53 437.525
ESTCUBE 1 01 Oct 12:48:37 12:53:12 78° 110° (ESE) 12:57:46 437.505/2401.250
ITUPSAT 1 01 Oct 12:55:35 12:56:46 11° 68° (ENE) 12:57:58 437.325
ZACube-1 01 Oct 12:55:40 12:59:10 25° 325° (NW) 13:02:43 437.345
HORYU 2 01 Oct 13:01:46 13:05:16 23° 25° (NNE) 13:08:46 437.375
ITAMSAT 1 01 Oct 13:03:23 13:08:33 70° 57° (ENE) 13:13:46 435.822/435.867
AO-7 01 Oct 13:03:39 13:11:57 77° 46° (NE) 13:20:15 29.400- 29.500
BRITE-PL 01 Oct 13:05:29 13:09:44 24° 22° (NNE) 13:13:45 437.365/2234.400
SWISSCUBE 01 Oct 13:05:46 13:08:00 13° 72° (ENE) 13:10:15 437.505
QB50P2 01 Oct 13:07:48 13:09:30 12° 286° (WNW) 13:11:12 145.880/145.840
UKube-1 01 Oct 13:09:02 13:13:15 47° 103° (ESE) 13:17:27 .
POLYITAN 1 01 Oct 13:09:59 13:11:39 12° 286° (WNW) 13:13:19 437.675
Cosmos 2499 01 Oct 13:13:45 13:20:02 32° 348° (NNW) 13:26:35 435.465 / 435.565
BEESAT 01 Oct 13:18:08 13:20:41 14° 74° (ENE) 13:23:15 436.000
CINEMA 3 01 Oct 13:21:30 13:23:57 15° 353° (N) 13:26:23 145.822/145.860
AIST 1 01 Oct 13:21:35 13:25:35 34° 47° (NE) 13:29:32
DELFI C3 01 Oct 13:21:44 13:25:04 25° 323° (NW) 13:28:22 145.870
M-CUBED/EXP-1 PRIME 01 Oct 13:23:27 13:26:32 32° 109° (ESE) 13:29:32 437.505
COMPASS 1 01 Oct 13:24:00 13:26:45 17° 343° (NNW) 13:29:30 437.405
LilacSat-2 01 Oct 13:24:04 13:26:03 14° 15° (NNE) 13:28:05 437.200
AISAT 01 Oct 13:24:07 13:28:34 84° 113° (ESE) 13:32:59 437.250
NOAA 15 01 Oct 13:24:23 13:28:45 26° 16° (NNE) 13:33:07 137.62
BUGSAT 1 01 Oct 13:26:44 13:29:04 15° 280° (W) 13:31:24 437.445
NOAA 18 01 Oct 13:28:33 13:33:05 27° 12° (NNE) 13:37:37 137.9125
Gurwin Techsat 1B 01 Oct 13:31:37 13:36:51 54° 257° (WSW) 13:42:06 435.225
50 SAT 01 Oct 13:38:48 13:42:31 76° 297° (WNW) 13:46:12 437.505
PCSat 01 Oct 13:39:14 13:40:37 11° 255° (WSW) 13:42:00 145.827
Oscar 19 01 Oct 13:42:04 13:46:48 34° 267° (W) 13:51:32 437.125/150
DX 1 01 Oct 13:45:34 13:49:58 83° 113° (ESE) 13:54:20 434.975-435.025
FUNcube-1 01 Oct 13:47:30 13:50:32 19° 337° (NNW) 13:53:36 145.935
YUBILEINY 01 Oct 13:49:33 13:58:10 66° 263° (W) 14:06:44 435.215
HO-68 01 Oct 13:50:09 13:56:36 38° 356° (N) 14:03:03 435.675
TISAT 1 01 Oct 13:52:39 13:56:37 40° 99° (E) 14:00:35 437.305
CUTE-I 01 Oct 13:53:33 13:58:01 28° 21° (NNE) 14:02:30 437.470
Cubesat XI-IV 01 Oct 13:54:41 13:59:10 28° 21° (NNE) 14:03:39 437.490
SEEDS 01 Oct 13:59:50 14:02:21 16° 356° (N) 14:04:54 437.485
CUBEBUG 1 01 Oct 14:01:10 14:05:29 58° 304° (NW) 14:09:45 437.445
CUBEBUG 2 01 Oct 14:02:03 14:04:36 16° 350° (N) 14:07:11 437.445
Cosmos 2491 01 Oct 14:04:07 14:12:37 55° 90° (E) 14:21:09 435.465 / 435.565
CUTE 1.7 + AOD 2 01 Oct 14:05:38 14:08:12 16° 1° (N) 14:10:45 437.475
Cosmos 2504 01 Oct 14:06:04 14:13:21 85° 254° (WSW) 14:21:04 435.465 / 435.565
O/OREOS (USA 219) 01 Oct 14:06:30 14:11:07 68° 220° (SW) 14:15:43 437.305
VELOX 1 01 Oct 14:07:27 14:11:52 63° 303° (WNW) 14:16:13 145.980
CANX-2 01 Oct 14:07:38 14:10:12 16° 2° (N) 14:12:46 2200.000
MOZHAYETS 4 01 Oct 14:09:28 14:10:53 11° 69° (ENE) 14:12:18
AAUSAT CUBESAT 2 01 Oct 14:10:52 14:13:21 15° 352° (N) 14:15:50 437.432
UWE-3 01 Oct 14:11:37 14:14:15 16° 348° (NNW) 14:16:54 435.000/436.395/437.385
GOMX 1 01 Oct 14:12:20 14:16:17 25° 29° (NNE) 14:20:03 467.674
DOVE 4 01 Oct 14:14:17 14:17:27 19° 21° (NNE) 14:20:32 437.250
GONETS M04 01 Oct 14:15:39 14:23:43 36° 5° (N) 14:31:44
HUMSAT D 01 Oct 14:16:44 14:20:01 22° 329° (NNW) 14:23:19 437.325/437.525
AUBIESAT-1 01 Oct 14:16:51 14:20:14 64° 120° (ESE) 14:23:32 437.475
Oscar 11 01 Oct 14:21:58 14:24:51 18° 346° (NNW) 14:27:45 145.826/435.025
SPROUT 01 Oct 14:22:48 14:27:03 64° 301° (WNW) 14:31:17 437.525
ESTCUBE 1 01 Oct 14:25:36 14:29:52 40° 314° (NW) 14:34:07 437.505/2401.250
JAS-2 01 Oct 14:27:49 14:32:33 18° 301° (WNW) 14:37:29 435.910
SO-50 01 Oct 14:30:47 14:33:11 14° 123° (ESE) 14:35:35 436.795
ZACube-1 01 Oct 14:31:46 14:34:25 16° 348° (NNW) 14:37:06 437.345
ITUPSAT 1 01 Oct 14:31:55 14:36:12 31° 92° (E) 14:40:29 437.325
HORYU 2 01 Oct 14:36:53 14:41:06 44° 48° (NE) 14:45:21 437.375
BRITE-PL 01 Oct 14:42:13 14:47:20 41° 45° (NE) 14:52:08 437.365/2234.400
SWISSCUBE 01 Oct 14:42:45 14:47:14 36° 96° (E) 14:51:41 437.505
ITAMSAT 1 01 Oct 14:43:21 14:48:21 46° 259° (W) 14:53:25 435.822/435.867
UKube-1 01 Oct 14:45:12 14:49:28 58° 305° (NW) 14:53:44 .
CUSAT 1 01 Oct 14:48:26 14:49:57 11° 41° (NE) 14:51:29 437.405
BEESAT 01 Oct 14:55:16 14:59:50 40° 98° (E) 15:04:20 436.000
LilacSat-2 01 Oct 14:56:19 14:59:22 23° 38° (NE) 15:02:26 437.200
DELFI C3 01 Oct 14:56:30 14:58:53 15° 346° (NNW) 15:01:16 145.870
AO-7 01 Oct 14:57:00 15:05:13 59° 252° (WSW) 15:13:27 29.400- 29.500
CINEMA 3 01 Oct 14:57:11 14:59:53 17° 17° (NNE) 15:02:35 145.822/145.860
M-CUBED/EXP-1 PRIME 01 Oct 14:58:00 15:01:23 66° 312° (NW) 15:04:39 437.505
COMPASS 1 01 Oct 14:58:35 15:01:04 15° 7° (N) 15:03:35 437.405
AIST 1 01 Oct 14:59:18 15:03:40 85° 252° (WSW) 15:07:58
AISAT 01 Oct 15:00:45 15:04:50 37° 316° (NW) 15:08:54 437.250
NOAA 15 01 Oct 15:02:40 15:07:38 41° 40° (NE) 15:12:38 137.62
NOAA 18 01 Oct 15:07:46 15:12:50 40° 36° (NE) 15:17:55 137.9125
Cosmos 2499 01 Oct 15:09:02 15:15:28 33° 18° (NNE) 15:22:14 435.465 / 435.565
50 SAT 01 Oct 15:12:31 15:15:39 26° 318° (NW) 15:18:46 437.505
Gurwin Techsat 1B 01 Oct 15:14:04 15:18:00 20° 280° (W) 15:21:56 435.225
DX 1 01 Oct 15:21:56 15:25:58 37° 316° (NW) 15:29:59 434.975-435.025
FUNcube-1 01 Oct 15:23:06 15:25:35 15° 0° (N) 15:28:06 145.935
Oscar 19 01 Oct 15:25:31 15:27:45 13° 291° (WNW) 15:30:00 437.125/150
TISAT 1 01 Oct 15:28:23 15:32:32 64° 302° (WNW) 15:36:41 437.305
CUTE-I 01 Oct 15:32:11 15:37:16 47° 44° (NE) 15:42:23 437.470
Cubesat XI-IV 01 Oct 15:33:22 15:38:27 47° 45° (NE) 15:43:35 437.490
SEEDS 01 Oct 15:33:57 15:36:50 18° 19° (NNE) 15:39:43 437.485
HO-68 01 Oct 15:36:35 15:43:14 43° 22° (NNE) 15:49:53 435.675
CUBEBUG 2 01 Oct 15:37:23 15:40:00 16° 13° (NNE) 15:42:39 437.445
CUBEBUG 1 01 Oct 15:37:36 15:41:13 26° 327° (NNW) 15:44:50 437.445
CUTE 1.7 + AOD 2 01 Oct 15:39:45 15:42:51 20° 24° (NNE) 15:45:57 437.475
CUBESAT XI-V 01 Oct 15:39:47 15:41:49 13° 70° (ENE) 15:43:50 437.345
KKS-1 01 Oct 15:41:10 15:44:42 23° 87° (E) 15:48:14 437.445
CANX-2 01 Oct 15:41:42 15:44:53 20° 26° (NNE) 15:48:04 2200.000
VELOX 1 01 Oct 15:44:04 15:47:50 28° 326° (NW) 15:51:35 145.980
AAUSAT CUBESAT 2 01 Oct 15:44:54 15:47:35 17° 16° (NNE) 15:50:17 437.432
MOZHAYETS 4 01 Oct 15:45:19 15:49:32 32° 92° (E) 15:53:44
O/OREOS (USA 219) 01 Oct 15:46:06 15:50:01 28° 243° (WSW) 15:53:56 437.305
YUBILEINY 01 Oct 15:46:24 15:53:42 32° 290° (WNW) 16:00:59 435.215
UWE-3 01 Oct 15:46:53 15:49:29 16° 11° (NNE) 15:52:07 435.000/436.395/437.385
GOMX 1 01 Oct 15:48:52 15:53:42 49° 52° (NE) 15:58:14 467.674
DOVE 4 01 Oct 15:50:09 15:54:18 34° 44° (NE) 15:58:16 437.250
AUBIESAT-1 01 Oct 15:51:29 15:54:41 39° 322° (NW) 15:57:49 437.475
HUMSAT D 01 Oct 15:52:01 15:54:32 16° 352° (N) 15:57:04 437.325/437.525
Oscar 11 01 Oct 15:56:58 15:59:46 17° 9° (N) 16:02:33 145.826/435.025
SPROUT 01 Oct 15:58:55 16:02:31 27° 324° (NW) 16:06:07 437.525
Cosmos 2504 01 Oct 15:59:36 16:06:09 38° 278° (W) 16:13:01 435.465 / 435.565
Cosmos 2491 01 Oct 16:00:27 16:09:19 78° 297° (WNW) 16:18:16 435.465 / 435.565
ESTCUBE 1 01 Oct 16:02:23 16:05:53 22° 337° (NNW) 16:09:22 437.505/2401.250
STARS 01 Oct 16:03:32 16:06:50 20° 85° (E) 16:10:08 437.465
ZACube-1 01 Oct 16:06:50 16:09:29 16° 12° (NNE) 16:12:09 437.345
SO-50 01 Oct 16:08:22 16:12:30 30° 146° (SE) 16:16:35 436.795
ITUPSAT 1 01 Oct 16:09:48 16:14:40 87° 116° (ESE) 16:19:31 437.325
HORYU 2 01 Oct 16:13:11 16:17:37 68° 251° (WSW) 16:22:05 437.375
GONETS M04 01 Oct 16:14:23 16:22:55 47° 36° (NE) 16:31:22
BRITE-PL 01 Oct 16:19:59 16:25:35 88° 246° (WSW) 16:30:48 437.365/2234.400
SWISSCUBE 01 Oct 16:20:38 16:25:29 80° 300° (WNW) 16:30:19 437.505
UKube-1 01 Oct 16:21:22 16:24:59 26° 328° (NNW) 16:28:35 .
CUSAT 1 01 Oct 16:23:45 16:29:18 22° 66° (ENE) 16:35:01 437.405
ITAMSAT 1 01 Oct 16:25:45 16:29:10 17° 283° (WNW) 16:32:35 435.822/435.867
LilacSat-2 01 Oct 16:29:26 16:33:11 60° 60° (ENE) 16:36:58 437.200
DELFI C3 01 Oct 16:30:15 16:32:30 15° 9° (N) 16:34:44 145.870
COMPASS 1 01 Oct 16:32:16 16:35:30 22° 30° (NNE) 16:38:46 437.405
CINEMA 3 01 Oct 16:32:27 16:36:06 29° 40° (NE) 16:39:42 145.822/145.860
M-CUBED/EXP-1 PRIME 01 Oct 16:32:40 16:35:37 27° 334° (NNW) 16:38:27 437.505
BEESAT 01 Oct 16:33:11 16:38:00 75° 301° (WNW) 16:42:48 436.000
AISAT 01 Oct 16:37:12 16:40:29 21° 339° (NNW) 16:43:46 437.250
AIST 1 01 Oct 16:37:15 16:40:50 26° 274° (W) 16:44:23
NOAA 15 01 Oct 16:41:48 16:47:10 90° 65° (ENE) 16:52:33 137.62
50 SAT 01 Oct 16:46:11 16:48:14 15° 341° (NNW) 16:50:19 437.505
NOAA 18 01 Oct 16:47:42 16:53:11 83° 60° (ENE) 16:58:41 137.9125
DANDE 01 Oct 16:52:54 16:57:28 18° 58° (ENE) 17:02:28 436.750
AO-7 01 Oct 16:52:58 16:59:51 28° 278° (W) 17:06:46 29.400- 29.500
FUNcube-1 01 Oct 16:57:39 17:00:40 19° 24° (NNE) 17:03:43 145.935
DX 1 01 Oct 16:58:05 17:01:21 21° 339° (NNW) 17:04:36 434.975-435.025
Cosmos 2499 01 Oct 17:03:15 17:10:21 51° 47° (NE) 17:17:55 435.465 / 435.565
TISAT 1 01 Oct 17:04:13 17:07:43 27° 324° (NW) 17:11:14 437.305
RS-15 01 Oct 17:04:16 17:09:55 15° 82° (E) 17:15:39 29.354- 29.394
SEEDS 01 Oct 17:07:51 17:11:37 31° 42° (NE) 17:15:23 437.485
CUTE-I 01 Oct 17:11:52 17:17:13 77° 248° (WSW) 17:22:37 437.470
CUBEBUG 2 01 Oct 17:12:09 17:15:37 26° 37° (NE) 17:19:09 437.445
Cubesat XI-IV 01 Oct 17:13:06 17:18:26 76° 248° (WSW) 17:23:50 437.490
CUBEBUG 1 01 Oct 17:13:34 17:16:28 18° 350° (N) 17:19:21 437.445
CUTE 1.7 + AOD 2 01 Oct 17:13:55 17:17:51 37° 47° (NE) 17:21:51 437.475
CANX-2 01 Oct 17:15:57 17:19:57 40° 49° (NE) 17:24:00 2200.000
CUBESAT XI-V 01 Oct 17:16:15 17:20:38 35° 94° (E) 17:24:57 437.345
KKS-1 01 Oct 17:17:35 17:22:03 69° 109° (ESE) 17:26:29 437.445
AAUSAT CUBESAT 2 01 Oct 17:18:31 17:22:05 27° 39° (NE) 17:25:41 437.432
VELOX 1 01 Oct 17:20:14 17:23:17 19° 349° (N) 17:26:20 145.980
UWE-3 01 Oct 17:21:29 17:24:55 25° 35° (NE) 17:28:23 435.000/436.395/437.385
MOZHAYETS 4 01 Oct 17:22:33 17:27:14 87° 299° (WNW) 17:31:55
HO-68 01 Oct 17:23:14 17:30:21 69° 47° (NE) 17:37:28 435.675
AUBIESAT-1 01 Oct 17:25:57 17:28:38 22° 345° (NNW) 17:31:16 437.475
HUMSAT D 01 Oct 17:26:14 17:28:56 17° 16° (NNE) 17:31:40 437.325/437.525
GOMX 1 01 Oct 17:26:44 17:31:49 65° 254° (WSW) 17:36:33 467.674
DOVE 4 01 Oct 17:27:05 17:31:47 88° 60° (ENE) 17:36:12 437.250
Oscar 11 01 Oct 17:31:17 17:34:49 25° 33° (NNE) 17:38:22 145.826/435.025
SPROUT 01 Oct 17:34:41 17:37:27 17° 347° (NNW) 17:40:14 437.525
ESTCUBE 1 01 Oct 17:38:27 17:41:32 18° 1° (N) 17:44:36 437.505/2401.250
STARS 01 Oct 17:39:39 17:44:02 63° 108° (ESE) 17:48:23 437.465
ZACube-1 01 Oct 17:41:16 17:44:44 25° 35° (NE) 17:48:14 437.345
YUBILEINY 01 Oct 17:43:12 17:47:43 15° 319° (NW) 17:52:14 435.215
ITUPSAT 1 01 Oct 17:47:48 17:52:16 39° 318° (NW) 17:56:46 437.325
SO-50 01 Oct 17:47:48 17:52:21 45° 169° (SSE) 17:56:48 436.795
HORYU 2 01 Oct 17:51:29 17:54:58 22° 273° (W) 17:58:28 437.375
Cosmos 2504 01 Oct 17:53:20 17:57:36 17° 305° (NW) 18:01:57 435.465 / 435.565
UKube-1 01 Oct 17:57:05 18:00:01 18° 351° (N) 18:02:56 .
SWISSCUBE 01 Oct 17:58:35 18:02:56 35° 322° (NW) 18:07:18 437.505
Cosmos 2491 01 Oct 17:59:05 18:07:32 46° 327° (NNW) 18:16:01 435.465 / 435.565
BRITE-PL 01 Oct 17:59:36 18:04:38 34° 269° (W) 18:09:25 437.365/2234.400
CUSAT 1 01 Oct 18:02:36 18:09:43 46° 90° (E) 18:17:15 437.405
DELFI C3 01 Oct 18:03:08 18:06:15 22° 32° (NNE) 18:09:22 145.870
LilacSat-2 01 Oct 18:04:10 18:07:44 37° 262° (W) 18:11:20 437.200
COMPASS 1 01 Oct 18:06:20 18:10:23 46° 52° (NE) 18:14:27 437.405
M-CUBED/EXP-1 PRIME 01 Oct 18:06:54 18:09:28 20° 357° (N) 18:11:59 437.505
CINEMA 3 01 Oct 18:08:39 18:12:54 75° 62° (ENE) 18:17:04 145.822/145.860
BEESAT 01 Oct 18:11:06 18:15:23 33° 323° (NW) 18:19:41 436.000
GONETS M04 01 Oct 18:12:03 18:21:00 81° 65° (ENE) 18:29:50
AISAT 01 Oct 18:12:52 18:15:48 18° 3° (N) 18:18:44 437.250
50 SAT 01 Oct 18:19:00 18:20:34 12° 4° (N) 18:22:07 437.505
STRAND 1 01 Oct 18:22:28 18:26:05 19° 79° (ENE) 18:29:41 437.568
NOAA 15 01 Oct 18:22:42 18:27:34 35° 266° (W) 18:32:28 137.62
NOAA 18 01 Oct 18:29:15 18:34:23 39° 263° (W) 18:39:32 137.9125
DANDE 01 Oct 18:32:00 18:38:15 39° 84° (E) 18:45:35 436.750
FUNcube-1 01 Oct 18:32:15 18:36:05 37° 47° (NE) 18:40:02 145.935
DX 1 01 Oct 18:33:31 18:36:25 18° 2° (N) 18:39:18 434.975-435.025
TISAT 1 01 Oct 18:39:41 18:42:23 17° 347° (NNW) 18:45:05 437.305
SEEDS 01 Oct 18:42:42 18:46:58 81° 65° (ENE) 18:51:17 437.485
CUBEBUG 2 01 Oct 18:47:41 18:51:47 64° 60° (ENE) 18:55:58 437.445
CUBEBUG 1 01 Oct 18:48:34 18:51:33 18° 14° (NNE) 18:54:32 437.445
CUTE 1.7 + AOD 2 01 Oct 18:49:13 18:53:31 80° 249° (WSW) 18:57:52 437.475
CANX-2 01 Oct 18:51:24 18:55:41 73° 252° (WSW) 19:00:02 2200.000
AAUSAT CUBESAT 2 01 Oct 18:52:56 18:57:07 69° 62° (ENE) 19:01:21 437.432
AO-7 01 Oct 18:53:23 18:56:10 12° 308° (NW) 18:58:56 29.400- 29.500
CUTE-I 01 Oct 18:53:29 18:58:06 29° 271° (W) 19:02:45 437.470
CUBESAT XI-V 01 Oct 18:53:43 18:58:28 80° 297° (WNW) 19:03:11 437.345
KKS-1 01 Oct 18:54:19 18:58:33 43° 312° (NW) 19:02:45 437.445
Cubesat XI-IV 01 Oct 18:54:44 18:59:21 29° 271° (W) 19:03:59 437.490
VELOX 1 01 Oct 18:55:29 18:58:34 19° 13° (NNE) 19:01:39 145.980
UWE-3 01 Oct 18:56:45 19:00:51 59° 58° (ENE) 19:05:02 435.000/436.395/437.385
Cosmos 2499 01 Oct 18:56:45 19:04:06 81° 254° (WSW) 19:11:59 435.465 / 435.565
AUBIESAT-1 01 Oct 18:59:45 19:02:23 20° 8° (N) 19:04:56 437.475
MOZHAYETS 4 01 Oct 18:59:53 19:04:07 35° 318° (NW) 19:08:21
HUMSAT D 01 Oct 19:00:01 19:03:35 28° 39° (NE) 19:07:12 437.325/437.525
DOVE 4 01 Oct 19:05:51 19:10:00 31° 268° (W) 19:13:57 437.250
Oscar 11 01 Oct 19:06:07 19:10:22 54° 56° (NE) 19:14:38 145.826/435.025
GOMX 1 01 Oct 19:06:44 19:10:44 23° 276° (W) 19:14:34 467.674
RS-15 01 Oct 19:08:07 19:18:10 34° 112° (ESE) 19:28:29 29.354- 29.394
SPROUT 01 Oct 19:09:29 19:12:11 17° 10° (N) 19:14:54 437.525
HO-68 01 Oct 19:11:15 19:18:21 62° 252° (WSW) 19:25:30 435.675
ESTCUBE 1 01 Oct 19:13:39 19:17:11 23° 24° (NNE) 19:20:43 437.505/2401.250
STARS 01 Oct 19:16:11 19:20:23 46° 310° (NW) 19:24:34 437.465
ZACube-1 01 Oct 19:16:23 19:20:30 60° 58° (ENE) 19:24:42 437.345
ITUPSAT 1 01 Oct 19:25:29 19:29:16 23° 341° (NNW) 19:33:03 437.325
SO-50 01 Oct 19:27:52 19:32:23 45° 192° (SSW) 19:36:47 436.795
UKube-1 01 Oct 19:31:52 19:34:54 19° 14° (NNE) 19:37:56 .
SWISSCUBE 01 Oct 19:36:08 19:39:48 22° 345° (NNW) 19:43:29 437.505
DELFI C3 01 Oct 19:36:34 19:40:27 48° 55° (NE) 19:44:22 145.870
M-CUBED/EXP-1 PRIME 01 Oct 19:40:24 19:43:19 24° 20° (NNE) 19:46:05 437.505
COMPASS 1 01 Oct 19:41:45 19:45:56 60° 255° (WSW) 19:50:10 437.405
LilacSat-2 01 Oct 19:41:49 19:43:08 11° 285° (WNW) 19:44:26 437.200
BRITE-PL 01 Oct 19:42:07 19:44:40 13° 292° (WNW) 19:47:10 437.365/2234.400
CUSAT 1 01 Oct 19:43:42 19:51:22 90° 275° (W) 19:59:28 437.405
CINEMA 3 01 Oct 19:46:34 19:50:28 33° 265° (W) 19:54:17 145.822/145.860
AISAT 01 Oct 19:47:42 19:51:10 23° 26° (NNE) 19:54:38 437.250
BEESAT 01 Oct 19:48:36 19:52:13 22° 347° (NNW) 19:55:50 436.000
50 SAT 01 Oct 19:50:31 19:52:56 17° 26° (NNE) 19:55:21 437.505
Cosmos 2491 01 Oct 19:58:46 20:06:49 36° 358° (N) 20:14:52 435.465 / 435.565
PRISM 01 Oct 19:59:23 20:01:40 14° 79° (ENE) 20:03:55 437.425
STRAND 1 01 Oct 20:01:26 20:06:29 50° 102° (ESE) 20:11:31 437.568
NOAA 15 01 Oct 20:06:31 20:09:01 13° 291° (WNW) 20:11:30 137.62
FUNcube-1 01 Oct 20:08:01 20:12:11 78° 251° (WSW) 20:16:27 145.935
DX 1 01 Oct 20:08:05 20:11:31 23° 26° (NNE) 20:14:56 434.975-435.025
GONETS M04 01 Oct 20:09:07 20:17:33 51° 273° (W) 20:25:54
AO-85 01 Oct 20:11:54 20:14:17 14° 124° (ESE) 20:16:34 145.980
DANDE 01 Oct 20:13:26 20:20:19 81° 110° (ESE) 20:28:37 436.750
NOAA 18 01 Oct 20:13:31 20:16:37 15° 287° (WNW) 20:19:44 137.9125
TISAT 1 01 Oct 20:14:12 20:16:52 17° 10° (N) 20:19:30 437.305
SEEDS 01 Oct 20:19:17 20:23:07 32° 267° (W) 20:27:00 437.485
CUBEBUG 1 01 Oct 20:23:05 20:26:52 29° 37° (NE) 20:30:37 437.445
CUBEBUG 2 01 Oct 20:24:48 20:28:44 39° 263° (W) 20:32:41 437.445
CUTE 1.7 + AOD 2 01 Oct 20:26:25 20:30:00 25° 272° (W) 20:33:37 437.475
CANX-2 01 Oct 20:28:49 20:32:16 23° 274° (W) 20:35:45 2200.000
AAUSAT CUBESAT 2 01 Oct 20:29:00 20:32:55 37° 263° (W) 20:36:53 437.432
VELOX 1 01 Oct 20:30:14 20:34:03 29° 36° (NE) 20:37:52 145.980
KKS-1 01 Oct 20:30:55 20:34:24 23° 335° (NNW) 20:37:52 437.445
CUBESAT XI-V 01 Oct 20:31:15 20:35:30 34° 320° (NW) 20:39:43 437.345
AUBIESAT-1 01 Oct 20:33:04 20:36:14 31° 30° (NNE) 20:39:17 437.475
UWE-3 01 Oct 20:33:34 20:37:33 43° 261° (W) 20:41:36 435.000/436.395/437.385
HUMSAT D 01 Oct 20:34:38 20:38:47 71° 62° (ENE) 20:43:00 437.325/437.525
MOZHAYETS 4 01 Oct 20:36:56 20:40:23 21° 341° (NNW) 20:43:50
CUTE-I 01 Oct 20:38:53 20:40:03 11° 296° (WNW) 20:41:14 437.470
Cubesat XI-IV 01 Oct 20:40:15 20:41:20 11° 296° (WNW) 20:42:26 437.490
Oscar 11 01 Oct 20:42:24 20:46:38 50° 258° (WSW) 20:50:55 145.826/435.025
SPROUT 01 Oct 20:43:36 20:47:05 25° 33° (NNE) 20:50:34 437.525
ANTELSAT 01 Oct 20:43:58 20:44:47 10° 70° (ENE) 20:45:35 437.575/2403.000
DOVE 4 01 Oct 20:48:27 20:49:09 10° 291° (WNW) 20:49:50 437.250
ESTCUBE 1 01 Oct 20:48:55 20:53:13 42° 47° (NE) 20:57:32 437.505/2401.250
Cosmos 2499 01 Oct 20:50:01 20:56:34 37° 279° (W) 21:03:32 435.465 / 435.565
STARS 01 Oct 20:52:36 20:56:04 23° 333° (NNW) 20:59:32 437.465
ZACube-1 01 Oct 20:53:03 20:57:03 42° 261° (W) 21:01:06 437.345
HO-68 01 Oct 21:01:35 21:07:33 27° 278° (W) 21:13:32 435.675
TIGRISAT 01 Oct 21:02:25 21:04:24 13° 74° (ENE) 21:06:24 435.000
ITUPSAT 1 01 Oct 21:02:25 21:05:57 21° 5° (N) 21:09:30 437.325
UKube-1 01 Oct 21:06:14 21:10:01 30° 37° (NE) 21:13:48 .
SO-50 01 Oct 21:08:10 21:12:11 28° 216° (SW) 21:16:07 436.795
DELFI C3 01 Oct 21:11:24 21:15:21 53° 256° (WSW) 21:19:21 145.870
SWISSCUBE 01 Oct 21:12:52 21:16:26 21° 9° (N) 21:20:00 437.505
M-CUBED/EXP-1 PRIME 01 Oct 21:13:54 21:17:25 48° 42° (NE) 21:20:44 437.505
RS-15 01 Oct 21:16:51 21:28:25 58° 142° (SE) 21:40:18 29.354- 29.394
COMPASS 1 01 Oct 21:19:18 21:22:21 19° 277° (W) 21:25:25 437.405
50 SAT 01 Oct 21:22:18 21:25:41 35° 49° (NE) 21:29:04 437.505
AISAT 01 Oct 21:22:42 21:26:56 44° 49° (NE) 21:31:10 437.250
BEESAT 01 Oct 21:25:15 21:28:50 21° 11° (N) 21:32:25 436.000
CUSAT 1 01 Oct 21:26:36 21:34:11 52° 320° (NW) 21:41:59 437.405
CINEMA 3 01 Oct 21:27:55 21:28:56 11° 288° (WNW) 21:29:57 145.822/145.860
YUBILEINY 01 Oct 21:32:45 21:33:03 10° 19° (NNE) 21:33:21 435.215
PRISM 01 Oct 21:34:00 21:38:02 44° 101° (ESE) 21:42:00 437.425
STRAND 1 01 Oct 21:40:47 21:45:54 64° 305° (NW) 21:51:01 437.568
DX 1 01 Oct 21:42:50 21:47:00 44° 49° (NE) 21:51:11 434.975-435.025
UNISAT 6 01 Oct 21:43:53 21:47:15 21° 85° (E) 21:50:40 437.425
JAS-2 01 Oct 21:44:44 21:49:52 18° 60° (ENE) 21:54:59 435.910
FUNcube-1 01 Oct 21:45:43 21:49:07 24° 273° (W) 21:52:34 145.935
TISAT 1 01 Oct 21:48:04 21:51:29 25° 33° (NNE) 21:54:55 437.305
AO-85 01 Oct 21:49:27 21:53:38 29° 146° (SE) 21:57:32 145.980
DANDE 01 Oct 21:56:43 22:03:44 57° 317° (NW) 22:11:56 436.750
Cosmos 2491 01 Oct 21:57:47 22:06:11 43° 29° (NNE) 22:14:32 435.465 / 435.565
CUBEBUG 1 01 Oct 21:58:19 22:02:42 68° 59° (ENE) 22:07:05 437.445
SEEDS 01 Oct 21:59:19 22:00:11 11° 290° (WNW) 22:01:03 437.485
CUBEBUG 2 01 Oct 22:04:43 22:06:34 13° 286° (WNW) 22:08:25 437.445
VELOX 1 01 Oct 22:05:38 22:10:04 67° 58° (ENE) 22:14:30 145.980
GONETS M04 01 Oct 22:05:55 22:12:32 25° 300° (WNW) 22:19:07
AUBIESAT-1 01 Oct 22:06:52 22:10:30 80° 52° (NE) 22:13:57 437.475
KKS-1 01 Oct 22:06:52 22:09:52 18° 359° (N) 22:12:50 437.445
AAUSAT CUBESAT 2 01 Oct 22:07:51 22:09:37 12° 286° (WNW) 22:11:23 437.432
CUBESAT XI-V 01 Oct 22:08:27 22:11:56 21° 343° (NNW) 22:15:23 437.345
HUMSAT D 01 Oct 22:10:54 22:14:45 36° 264° (W) 22:18:41 437.325/437.525
UWE-3 01 Oct 22:12:57 22:15:09 14° 284° (WNW) 22:17:23 435.000/436.395/437.385
MOZHAYETS 4 01 Oct 22:13:11 22:16:20 18° 5° (N) 22:19:30
SPROUT 01 Oct 22:18:17 22:22:28 56° 56° (ENE) 22:26:40 437.525
POPSAT HIP 1 01 Oct 22:18:34 22:19:57 11° 73° (ENE) 22:21:21 437.405
ANTELSAT 01 Oct 22:18:58 22:22:54 31° 93° (E) 22:26:54 437.575/2403.000
Oscar 11 01 Oct 22:20:58 22:23:48 17° 281° (W) 22:26:37 145.826/435.025
ESTCUBE 1 01 Oct 22:25:20 22:29:54 75° 249° (WSW) 22:34:30 437.505/2401.250
STARS 01 Oct 22:28:26 22:31:21 18° 356° (N) 22:34:15 437.465
NANOSAT C BR1 01 Oct 22:31:21 22:33:21 13° 76° (ENE) 22:35:21 145.865
ZACube-1 01 Oct 22:32:17 22:34:29 14° 284° (WNW) 22:36:41 437.345
TIGRISAT 01 Oct 22:38:14 22:42:20 38° 97° (E) 22:46:30 435.000
ITUPSAT 1 01 Oct 22:38:40 22:42:43 28° 28° (NNE) 22:46:47 437.325
UKube-1 01 Oct 22:41:20 22:45:40 73° 59° (ENE) 22:50:01 .
Cosmos 2499 01 Oct 22:43:31 22:47:42 16° 306° (NW) 22:52:02 435.465 / 435.565
M-CUBED/EXP-1 PRIME 01 Oct 22:48:25 22:52:03 53° 243° (WSW) 22:55:27 437.505
DELFI C3 01 Oct 22:48:29 22:51:06 16° 279° (W) 22:53:43 145.870
SWISSCUBE 01 Oct 22:49:03 22:53:12 30° 32° (NNE) 22:57:23 437.505
SO-50 01 Oct 22:49:23 22:51:25 13° 239° (WSW) 22:53:26 436.795
50 SAT 01 Oct 22:55:21 22:59:01 71° 249° (WSW) 23:02:44 437.505
HO-68 01 Oct 22:56:06 22:58:10 11° 305° (NW) 23:00:13 435.675
QB50P2 01 Oct 22:58:35 23:01:40 19° 84° (E) 23:04:45 145.880/145.840
AISAT 01 Oct 22:58:55 23:03:22 67° 251° (WSW) 23:07:48 437.250
POLYITAN 1 01 Oct 23:00:45 23:03:50 19° 84° (E) 23:06:54 437.675
BEESAT 01 Oct 23:01:25 23:05:38 31° 34° (NE) 23:09:51 436.000
PRISM 01 Oct 23:09:24 23:13:32 59° 304° (NW) 23:17:37 437.425
CUSAT 1 01 Oct 23:10:35 23:17:53 38° 346° (NNW) 23:25:07 437.405
BUGSAT 1 01 Oct 23:16:34 23:18:34 13° 78° (ENE) 23:20:33 437.445
DX 1 01 Oct 23:18:47 23:23:10 66° 251° (WSW) 23:27:32 434.975-435.025
STRAND 1 01 Oct 23:20:01 23:24:33 32° 329° (NNW) 23:29:05 437.568
UNISAT 6 01 Oct 23:20:25 23:24:47 65° 108° (ESE) 23:29:14 437.425
YUBILEINY 01 Oct 23:20:47 23:26:09 18° 49° (NE) 23:31:31 435.215
TISAT 1 01 Oct 23:22:30 23:26:36 57° 56° (NE) 23:30:43 437.305
RS-15 01 Oct 23:27:59 23:40:01 72° 174° (S) 23:52:18 29.354- 29.394
AO-85 01 Oct 23:28:55 23:33:28 45° 169° (SSE) 23:37:41 145.980
JAS-2 01 Oct 23:29:58 23:37:16 39° 87° (E) 23:44:26 435.910
DUCHIFAT 1 01 Oct 23:32:02 23:35:33 25° 90° (E) 23:39:06 145.980
CUBEBUG 1 01 Oct 23:35:07 23:39:18 40° 262° (W) 23:43:28 437.445
QB50P1 01 Oct 23:39:09 23:42:54 30° 93° (E) 23:46:38 145.935-145.965
DANDE 01 Oct 23:41:10 23:48:09 39° 344° (NNW) 23:55:56 436.750
KKS-1 01 Oct 23:41:55 23:45:18 22° 22° (NNE) 23:48:41 437.445
AUBIESAT-1 01 Oct 23:42:08 23:45:20 29° 252° (WSW) 23:48:26 437.475
VELOX 1 01 Oct 23:42:36 23:46:50 41° 261° (W) 23:51:04 145.980
CUBESAT XI-V 01 Oct 23:44:48 23:48:04 19° 7° (N) 23:51:20 437.345
MOZHAYETS 4 01 Oct 23:48:38 23:52:22 25° 28° (NNE) 23:56:07
HUMSAT D 01 Oct 23:50:07 23:51:38 12° 287° (WNW) 23:53:10 437.325/437.525
POPSAT HIP 1 01 Oct 23:53:07 23:57:01 35° 96° (E) 00:00:54 437.405
SPROUT 01 Oct 23:54:27 23:58:35 47° 258° (WSW) 00:02:44 437.525
Cosmos 2491 01 Oct 23:55:41 00:04:36 71° 58° (ENE) 00:13:27 435.465 / 435.565
ANTELSAT 01 Oct 23:55:43 00:00:07 85° 295° (WNW) 00:04:36 437.575/2403.000
Oscar 19 01 Oct 23:59:01 00:01:36 14° 71° (ENE) 00:04:10 437.125/150
GONETS M04 02 Oct 00:02:49 00:06:06 13° 329° (NNW) 00:09:22
STARS 02 Oct 00:03:19 00:06:33 21° 20° (NNE) 00:09:48 437.465
ESTCUBE 1 02 Oct 00:03:41 00:07:27 25° 272° (W) 00:11:14 437.505/2401.250
NANOSAT C BR1 02 Oct 00:06:15 00:10:14 40° 99° (E) 00:14:13 145.865
TIGRISAT 02 Oct 00:15:02 00:19:23 71° 299° (WNW) 00:23:49 435.000
ITUPSAT 1 02 Oct 00:15:15 00:19:56 55° 52° (NE) 00:24:39 437.325
UKube-1 02 Oct 00:18:02 00:22:04 37° 262° (W) 00:26:07 .
M-CUBED/EXP-1 PRIME 02 Oct 00:25:01 00:27:18 15° 263° (W) 00:29:30 437.505
SWISSCUBE 02 Oct 00:25:45 00:30:29 63° 56° (NE) 00:35:15 437.505
50 SAT 02 Oct 00:30:24 00:33:09 20° 273° (W) 00:35:56 437.505
QB50P2 02 Oct 00:34:07 00:38:19 60° 106° (ESE) 00:42:31 145.880/145.840
POLYITAN 1 02 Oct 00:36:16 00:40:28 60° 106° (ESE) 00:44:40 437.675
AISAT 02 Oct 00:37:08 00:40:38 22° 274° (W) 00:44:06 437.250
BEESAT 02 Oct 00:38:11 00:42:57 68° 57° (ENE) 00:47:45 436.000
PRISM 02 Oct 00:44:52 00:48:20 26° 326° (NW) 00:51:46 437.425
BEESAT 3 02 Oct 00:49:00 00:51:33 17° 133° (SE) 00:54:07 437.485
AO-7 02 Oct 00:49:37 00:51:25 11° 49° (NE) 00:53:13 29.400- 29.500
BUGSAT 1 02 Oct 00:51:09 00:55:00 42° 100° (E) 00:58:52 437.445
CUSAT 1 02 Oct 00:54:31 01:01:55 38° 13° (NNE) 01:08:56 437.405
DX 1 02 Oct 00:56:44 01:00:08 22° 274° (W) 01:03:33 434.975-435.025
UNISAT 6 02 Oct 00:57:19 01:01:29 44° 310° (NW) 01:05:43 437.425
TISAT 1 02 Oct 00:58:24 01:02:26 45° 258° (WSW) 01:06:29 437.305
STRAND 1 02 Oct 00:58:43 01:02:41 23° 353° (N) 01:06:41 437.568
DUCHIFAT 1 02 Oct 01:07:38 01:11:52 82° 113° (ESE) 01:16:05 145.980
AO-85 02 Oct 01:09:02 01:13:29 45° 192° (SSW) 01:17:34 145.980
Cosmos 2504 02 Oct 01:12:16 01:17:07 20° 61° (ENE) 01:22:00 435.465 / 435.565
YUBILEINY 02 Oct 01:12:46 01:20:33 38° 77° (ENE) 01:28:18 435.215
CUBEBUG 1 02 Oct 01:14:33 01:16:47 14° 285° (WNW) 01:19:00 437.445
QB50P1 02 Oct 01:14:55 01:19:10 86° 294° (WNW) 01:23:25 145.935-145.965
JAS-2 02 Oct 01:15:22 01:23:18 80° 112° (ESE) 01:31:06 435.910
KKS-1 02 Oct 01:16:56 01:21:04 39° 45° (NE) 01:25:13 437.445
CUBESAT XI-V 02 Oct 01:20:26 01:24:20 26° 30° (NNE) 01:28:14 437.345
VELOX 1 02 Oct 01:22:08 01:24:29 14° 284° (WNW) 01:26:51 145.980
MOZHAYETS 4 02 Oct 01:24:23 01:28:50 49° 51° (NE) 01:33:19
DANDE 02 Oct 01:25:47 01:32:59 38° 10° (N) 01:40:44 436.750
POPSAT HIP 1 02 Oct 01:28:57 01:33:11 74° 297° (WNW) 01:37:24 437.405
Gurwin Techsat 1B 02 Oct 01:32:36 01:37:01 26° 85° (E) 01:41:26 435.225
ANTELSAT 02 Oct 01:32:38 01:36:33 33° 318° (NW) 01:40:31 437.575/2403.000
SPROUT 02 Oct 01:32:58 01:35:34 15° 281° (W) 01:38:09 437.525
Oscar 19 02 Oct 01:37:41 01:42:29 37° 95° (E) 01:47:16 437.125/150
STARS 02 Oct 01:38:04 01:42:05 36° 43° (NE) 01:46:06 437.465
RS-15 02 Oct 01:39:54 01:51:54 66° 205° (SSW) 02:04:02 29.354- 29.394
NANOSAT C BR1 02 Oct 01:42:04 01:46:15 65° 301° (WNW) 01:50:25 145.865
TIGRISAT 02 Oct 01:51:55 01:55:40 29° 322° (NW) 01:59:29 435.000
Cosmos 2491 02 Oct 01:52:53 02:01:33 61° 266° (W) 02:10:11 435.465 / 435.565
ITUPSAT 1 02 Oct 01:53:09 01:57:53 57° 254° (WSW) 02:02:40 437.325
BEESAT 2 02 Oct 01:53:09 01:56:19 23° 141° (SE) 01:59:29 435.950
UKube-1 02 Oct 01:57:33 01:59:22 12° 285° (WNW) 02:01:11 .
SWISSCUBE 02 Oct 02:03:53 02:08:31 48° 258° (WSW) 02:13:12 437.505
QB50P2 02 Oct 02:10:05 02:14:08 45° 309° (NW) 02:18:11 145.880/145.840
POLYITAN 1 02 Oct 02:12:14 02:16:17 45° 309° (NW) 02:20:20 437.675
BEESAT 02 Oct 02:16:28 02:21:03 44° 260° (W) 02:25:39 436.000
PRISM 02 Oct 02:19:57 02:22:39 17° 349° (N) 02:25:19 437.425
BEESAT 3 02 Oct 02:24:47 02:28:21 33° 156° (SSE) 02:31:58 437.485
BUGSAT 1 02 Oct 02:26:38 02:30:37 59° 302° (WNW) 02:34:35 437.445
UNISAT 6 02 Oct 02:34:08 02:37:30 22° 332° (NNW) 02:40:55 437.425
STRAND 1 02 Oct 02:36:34 02:40:42 25° 17° (NNE) 02:44:51 437.568
TISAT 1 02 Oct 02:36:43 02:39:07 15° 281° (W) 02:41:32 437.305
CUSAT 1 02 Oct 02:37:46 02:45:38 52° 39° (NE) 02:52:49 437.405
ITAMSAT 1 02 Oct 02:40:50 02:45:16 27° 88° (E) 02:49:40 435.822/435.867
AO-7 02 Oct 02:41:14 02:47:54 26° 79° (E) 02:54:33 29.400- 29.500
DUCHIFAT 1 02 Oct 02:43:31 02:47:22 36° 315° (NW) 02:51:12 145.980
AO-85 02 Oct 02:49:24 02:53:15 28° 216° (SW) 02:56:52 145.980
QB50P1 02 Oct 02:50:54 02:54:39 32° 318° (NW) 02:58:26 145.935-145.965
PCSat 02 Oct 02:52:08 02:54:23 13° 108° (ESE) 02:56:38 145.827
KKS-1 02 Oct 02:53:01 02:57:29 79° 248° (WSW) 03:01:58 437.445
CUBESAT XI-V 02 Oct 02:56:28 03:01:04 53° 53° (NE) 03:05:41 437.345
JAS-2 02 Oct 03:00:33 03:08:11 58° 316° (NW) 03:15:47 435.910
MOZHAYETS 4 02 Oct 03:01:26 03:06:02 62° 254° (WSW) 03:10:40
Cosmos 2504 02 Oct 03:02:05 03:08:49 46° 88° (E) 03:15:40 435.465 / 435.565
POPSAT HIP 1 02 Oct 03:04:55 03:08:35 29° 321° (NW) 03:12:14 437.405
YUBILEINY 02 Oct 03:07:42 03:16:27 79° 104° (ESE) 03:25:12 435.215
ANTELSAT 02 Oct 03:09:19 03:12:23 19° 341° (NNW) 03:15:29 437.575/2403.000
DANDE 02 Oct 03:09:46 03:17:35 50° 36° (NE) 03:25:41 436.750
Gurwin Techsat 1B 02 Oct 03:12:34 03:17:55 68° 109° (ESE) 03:23:15 435.225
STARS 02 Oct 03:13:49 03:18:14 87° 250° (WSW) 03:22:38 437.465
Oscar 19 02 Oct 03:17:08 03:22:22 84° 296° (WNW) 03:27:32 437.125/150
NANOSAT C BR1 02 Oct 03:17:58 03:21:31 27° 323° (NW) 03:25:03 145.865
AIST 2 02 Oct 03:18:49 03:21:16 15° 129° (SE) 03:23:44 435.215
TIGRISAT 02 Oct 03:28:29 03:31:24 18° 345° (NNW) 03:34:22 435.000
BEESAT 2 02 Oct 03:29:41 03:33:27 39° 164° (SSE) 03:37:13 435.950
ITUPSAT 1 02 Oct 03:33:11 03:36:44 20° 278° (W) 03:40:17 437.325
AIST 1 02 Oct 03:44:19 03:47:50 24° 85° (E) 03:51:20
SWISSCUBE 02 Oct 03:44:22 03:47:30 17° 282° (WNW) 03:50:37 437.505
QB50P2 02 Oct 03:46:00 03:49:16 22° 331° (NNW) 03:52:32 145.880/145.840
POLYITAN 1 02 Oct 03:48:10 03:51:25 22° 331° (NNW) 03:54:41 437.675
GONETS M04 02 Oct 03:48:11 03:51:18 12° 30° (NNE) 03:54:25
Cosmos 2491 02 Oct 03:49:44 03:56:56 29° 293° (WNW) 04:04:07 435.465 / 435.565
HORYU 2 02 Oct 03:50:36 03:52:13 12° 73° (ENE) 03:53:49 437.375
RS-15 02 Oct 03:51:42 04:02:52 44° 235° (SW) 04:14:03 29.354- 29.394
PRISM 02 Oct 03:54:02 03:56:47 17° 12° (NNE) 03:59:30 437.425
BEESAT 02 Oct 03:57:13 04:00:05 16° 283° (WNW) 04:02:57 436.000
BEESAT 3 02 Oct 04:01:44 04:05:32 44° 178° (S) 04:09:20 437.485
BUGSAT 1 02 Oct 04:02:13 04:05:30 24° 325° (NW) 04:08:47 437.445
UNISAT 6 02 Oct 04:10:23 04:13:07 17° 356° (N) 04:15:52 437.425
BRITE-PL 02 Oct 04:10:51 04:13:33 14° 70° (ENE) 04:16:09 437.365/2234.400
STRAND 1 02 Oct 04:14:13 04:19:00 40° 40° (NE) 04:23:47 437.568
DUCHIFAT 1 02 Oct 04:19:15 04:22:15 19° 337° (NNW) 04:25:14 145.980
ITAMSAT 1 02 Oct 04:20:20 04:25:35 72° 111° (ESE) 04:30:50 435.822/435.867
CUSAT 1 02 Oct 04:20:21 04:28:28 90° 62° (ENE) 04:35:39 437.405
QB50P1 02 Oct 04:26:40 04:29:34 18° 341° (NNW) 04:32:28 145.935-145.965
AO-85 02 Oct 04:30:44 04:32:27 12° 239° (WSW) 04:34:07 145.980
KKS-1 02 Oct 04:30:59 04:34:43 26° 270° (W) 04:38:28 437.445
PCSat 02 Oct 04:31:37 04:36:18 31° 131° (SE) 04:41:01 145.827
CUBESAT XI-V 02 Oct 04:33:52 04:38:32 57° 256° (WSW) 04:43:14 437.345
AO-7 02 Oct 04:34:31 04:42:41 55° 106° (ESE) 04:50:50 29.400- 29.500
MOZHAYETS 4 02 Oct 04:40:35 04:44:06 21° 277° (W) 04:47:39
POPSAT HIP 1 02 Oct 04:40:38 04:43:25 18° 344° (NNW) 04:46:14 437.405
NOAA 15 02 Oct 04:42:42 04:45:27 14° 71° (ENE) 04:48:11 137.62
ANTELSAT 02 Oct 04:45:10 04:47:54 17° 5° (N) 04:50:40 437.575/2403.000
JAS-2 02 Oct 04:45:13 04:52:13 39° 340° (NNW) 04:59:19 435.910
STARS 02 Oct 04:51:22 04:55:10 28° 268° (W) 04:58:58 437.465
Gurwin Techsat 1B 02 Oct 04:52:43 04:57:53 51° 312° (NW) 05:03:02 435.225
DANDE 02 Oct 04:53:06 05:01:22 83° 62° (ENE) 05:09:41 436.750
NANOSAT C BR1 02 Oct 04:53:33 04:56:15 17° 347° (NNW) 04:58:58 145.865
Cosmos 2504 02 Oct 04:54:44 05:01:56 80° 296° (WNW) 05:09:16 435.465 / 435.565
AIST 2 02 Oct 04:55:05 04:58:48 32° 151° (SSE) 05:02:32 435.215
NOAA 18 02 Oct 04:55:35 04:58:00 13° 69° (ENE) 05:00:26 137.9125
Oscar 19 02 Oct 04:56:35 05:01:22 38° 321° (NW) 05:06:07 437.125/150
TIGRISAT 02 Oct 05:04:08 05:06:54 17° 8° (N) 05:09:41 435.000
YUBILEINY 02 Oct 05:05:18 05:13:55 57° 312° (NW) 05:22:32 435.215
BEESAT 2 02 Oct 05:07:00 05:10:50 44° 187° (S) 05:14:41 435.950
CUTE-I 02 Oct 05:14:10 05:17:47 18° 77° (ENE) 05:21:23 437.470
GOMX 1 02 Oct 05:14:11 05:17:09 17° 77° (ENE) 05:20:01 467.674
Cubesat XI-IV 02 Oct 05:15:34 05:19:12 18° 77° (ENE) 05:22:49 437.490
AIST 1 02 Oct 05:20:34 05:24:57 78° 108° (ESE) 05:29:19
QB50P2 02 Oct 05:21:24 05:23:58 16° 355° (N) 05:26:33 145.880/145.840
LilacSat-2 02 Oct 05:23:15 05:25:28 15° 80° (E) 05:27:42 437.200
POLYITAN 1 02 Oct 05:23:33 05:26:07 16° 355° (N) 05:28:42 437.675
HORYU 2 02 Oct 05:26:01 05:30:07 34° 96° (E) 05:34:13 437.375
PRISM 02 Oct 05:27:35 05:31:06 27° 35° (NE) 05:34:38 437.425
BUGSAT 1 02 Oct 05:37:27 05:39:53 16° 348° (NNW) 05:42:18 437.445
GONETS M04 02 Oct 05:38:17 05:44:49 24° 59° (ENE) 05:51:20
BEESAT 3 02 Oct 05:39:05 05:42:44 35° 201° (SSW) 05:46:24 437.485
UNISAT 6 02 Oct 05:45:35 05:48:38 19° 19° (NNE) 05:51:44 437.425
Cosmos 2491 02 Oct 05:46:33 05:50:50 15° 322° (NW) 05:55:05 435.465 / 435.565
BRITE-PL 02 Oct 05:48:46 05:53:32 40° 95° (E) 05:57:55 437.365/2234.400
STRAND 1 02 Oct 05:52:46 05:57:55 89° 65° (ENE) 06:03:07 437.568
DUCHIFAT 1 02 Oct 05:54:17 05:56:47 16° 1° (N) 05:59:17 145.980
ITAMSAT 1 02 Oct 05:59:59 06:05:01 49° 314° (NW) 06:10:03 435.822/435.867
Cosmos 2499 02 Oct 06:01:17 06:06:10 20° 62° (ENE) 06:11:09 435.465 / 435.565
QB50P1 02 Oct 06:01:37 06:04:10 16° 4° (N) 06:06:43 145.935-145.965
CUSAT 1 02 Oct 06:02:35 06:10:04 45° 270° (W) 06:16:44 437.405
RS-15 02 Oct 06:03:41 06:12:04 22° 264° (W) 06:20:27 29.354- 29.394
O/OREOS (USA 219) 02 Oct 06:12:58 06:16:15 20° 109° (ESE) 06:19:34 437.305
CUBESAT XI-V 02 Oct 06:13:25 06:16:55 20° 279° (W) 06:20:24 437.345
PCSat 02 Oct 06:13:43 06:19:01 56° 155° (SSE) 06:24:21 145.827
POPSAT HIP 1 02 Oct 06:15:26 06:18:02 16° 7° (N) 06:20:36 437.405
ANTELSAT 02 Oct 06:20:09 06:23:30 22° 28° (NNE) 06:26:54 437.575/2403.000
CUTE 1.7 + AOD 2 02 Oct 06:21:21 06:22:07 10° 69° (ENE) 06:22:52 437.475
NOAA 15 02 Oct 06:21:52 06:26:50 37° 95° (E) 06:31:45 137.62
HO-68 02 Oct 06:22:28 06:27:16 19° 70° (ENE) 06:32:03 435.675
CANX-2 02 Oct 06:23:02 06:24:31 12° 71° (ENE) 06:26:01 2200.000
AO-7 02 Oct 06:27:45 06:36:05 81° 312° (NW) 06:44:24 29.400- 29.500
NANOSAT C BR1 02 Oct 06:28:11 06:30:48 16° 10° (N) 06:33:25 145.865
JAS-2 02 Oct 06:29:07 06:35:51 36° 5° (N) 06:42:48 435.910
Gurwin Techsat 1B 02 Oct 06:32:35 06:37:07 29° 336° (NNW) 06:41:38 435.225
AIST 2 02 Oct 06:32:45 06:36:45 45° 174° (S) 06:40:47 435.215
NOAA 18 02 Oct 06:35:27 06:40:26 34° 94° (E) 06:45:24 137.9125
Oscar 19 02 Oct 06:35:37 06:39:46 25° 345° (NNW) 06:43:54 437.125/150
DANDE 02 Oct 06:36:05 06:44:01 53° 265° (W) 06:51:53 436.750
TIGRISAT 02 Oct 06:39:02 06:42:31 25° 32° (NNE) 06:46:03 435.000
BEESAT 2 02 Oct 06:44:36 06:48:07 29° 210° (SSW) 06:51:38 435.950
DOVE 4 02 Oct 06:48:56 06:52:48 31° 93° (E) 06:56:31 437.250
Cosmos 2504 02 Oct 06:49:37 06:56:22 42° 323° (NW) 07:03:17 435.465 / 435.565
GOMX 1 02 Oct 06:51:54 06:56:25 51° 101° (ESE) 07:00:38 467.674
CUTE-I 02 Oct 06:53:58 06:59:10 47° 101° (E) 07:04:21 437.470
Cubesat XI-IV 02 Oct 06:55:25 07:00:37 47° 101° (E) 07:05:48 437.490
QB50P2 02 Oct 06:55:44 06:58:35 18° 18° (NNE) 07:01:28 145.880/145.840
LilacSat-2 02 Oct 06:56:56 07:00:41 48° 102° (ESE) 07:04:26 437.200
POLYITAN 1 02 Oct 06:57:53 07:00:45 18° 18° (NNE) 07:03:36 437.675
AIST 1 02 Oct 06:58:53 07:02:58 37° 311° (NW) 07:07:01
PRISM 02 Oct 07:01:47 07:05:57 63° 58° (ENE) 07:10:06 437.425
HORYU 2 02 Oct 07:02:38 07:07:06 79° 299° (WNW) 07:11:35 437.375
YUBILEINY 02 Oct 07:04:39 07:12:42 38° 342° (NNW) 07:20:45 435.215
COMPASS 1 02 Oct 07:10:44 07:12:47 13° 75° (ENE) 07:14:48 437.405
BUGSAT 1 02 Oct 07:11:39 07:14:04 16° 11° (NNE) 07:16:30 437.445
BEESAT 3 02 Oct 07:16:47 07:19:37 19° 224° (SW) 07:22:27 437.485
UNISAT 6 02 Oct 07:20:37 07:24:29 34° 43° (NE) 07:28:25 437.425
CINEMA 3 02 Oct 07:25:38 07:29:06 25° 89° (E) 07:32:36 145.822/145.860
BRITE-PL 02 Oct 07:27:21 07:32:28 73° 299° (WNW) 07:37:07 437.365/2234.400
DUCHIFAT 1 02 Oct 07:28:17 07:31:20 20° 24° (NNE) 07:34:22 145.980
GONETS M04 02 Oct 07:31:21 07:39:45 50° 86° (E) 07:48:07
STRAND 1 02 Oct 07:33:03 07:37:42 34° 267° (W) 07:42:24 437.568
QB50P1 02 Oct 07:35:38 07:38:50 21° 27° (NNE) 07:42:01 145.935-145.965
ITAMSAT 1 02 Oct 07:39:21 07:43:45 28° 337° (NNW) 07:48:09 435.822/435.867
FUNcube-1 02 Oct 07:42:34 07:43:48 11° 71° (ENE) 07:45:01 145.935
CUSAT 1 02 Oct 07:44:51 07:50:24 21° 295° (WNW) 07:55:34 437.405
SEEDS 02 Oct 07:47:53 07:51:25 24° 87° (E) 07:54:56 437.485
POPSAT HIP 1 02 Oct 07:49:25 07:52:44 23° 30° (NNE) 07:56:03 437.405
O/OREOS (USA 219) 02 Oct 07:50:24 07:54:52 51° 132° (SE) 07:59:22 437.305
Cosmos 2499 02 Oct 07:50:58 07:57:38 47° 89° (E) 08:04:32 435.465 / 435.565
ANTELSAT 02 Oct 07:55:26 07:59:32 46° 51° (NE) 08:03:42 437.575/2403.000
CUTE 1.7 + AOD 2 02 Oct 07:55:27 07:59:20 31° 93° (E) 08:03:13 437.475
AAUSAT CUBESAT 2 02 Oct 07:56:24 07:59:32 20° 83° (E) 08:02:40 437.432
PCSat 02 Oct 07:56:46 08:02:12 71° 180° (S) 08:07:38 145.827
CANX-2 02 Oct 07:57:42 08:01:41 34° 94° (E) 08:05:39 2200.000
CUBEBUG 2 02 Oct 08:00:22 08:03:38 21° 85° (E) 08:06:57 437.445
NOAA 15 02 Oct 08:01:48 08:07:10 85° 299° (WNW) 08:12:30 137.62
NANOSAT C BR1 02 Oct 08:02:05 08:05:29 24° 33° (NNE) 08:08:54 145.865
UWE-3 02 Oct 08:08:09 08:11:16 19° 83° (E) 08:14:25 435.000/436.395/437.385
HO-68 02 Oct 08:10:16 08:17:05 43° 96° (E) 08:23:51 435.675
AIST 2 02 Oct 08:10:53 08:14:48 40° 198° (SSW) 08:18:45 435.215
Gurwin Techsat 1B 02 Oct 08:11:46 08:15:55 24° 0° (N) 08:20:05 435.225
JAS-2 02 Oct 08:12:36 08:19:36 45° 31° (NNE) 08:26:58 435.910
Oscar 19 02 Oct 08:13:52 08:17:55 24° 9° (N) 08:21:57 437.125/150
TIGRISAT 02 Oct 08:14:28 08:18:38 54° 55° (NE) 08:22:53 435.000
Oscar 11 02 Oct 08:15:10 08:18:00 17° 79° (E) 08:20:50 145.826/435.025
NOAA 18 02 Oct 08:16:16 08:21:47 87° 115° (ESE) 08:27:18 137.9125
DANDE 02 Oct 08:19:00 08:25:25 26° 290° (WNW) 08:31:52 436.750
AO-7 02 Oct 08:20:28 08:28:26 53° 338° (NNW) 08:36:24 29.400- 29.500
BEESAT 2 02 Oct 08:22:53 08:24:58 14° 232° (SW) 08:27:02 435.950
ZACube-1 02 Oct 08:26:23 08:29:31 19° 83° (E) 08:32:41 437.345
DOVE 4 02 Oct 08:26:41 08:31:01 81° 294° (WNW) 08:35:12 437.250
QB50P2 02 Oct 08:29:46 08:33:30 31° 41° (NE) 08:37:13 145.880/145.840
GOMX 1 02 Oct 08:30:09 08:34:40 54° 305° (NW) 08:38:54 467.674
LilacSat-2 02 Oct 08:31:21 08:35:04 48° 304° (NW) 08:38:48 437.200
POLYITAN 1 02 Oct 08:31:56 08:35:38 31° 41° (NE) 08:39:22 437.675
CUTE-I 02 Oct 08:34:13 08:39:34 70° 304° (NW) 08:44:55 437.470
DELFI C3 02 Oct 08:35:14 08:36:59 12° 75° (ENE) 08:38:43 145.870
Cubesat XI-IV 02 Oct 08:35:40 08:41:01 70° 304° (NW) 08:46:22 437.490
PRISM 02 Oct 08:37:31 08:41:30 41° 260° (W) 08:45:29 437.425
AIST 1 02 Oct 08:38:36 08:41:45 19° 336° (NNW) 08:44:53
HORYU 2 02 Oct 08:39:21 08:43:19 32° 321° (NW) 08:47:18 437.375
BUGSAT 1 02 Oct 08:45:10 08:48:27 24° 34° (NE) 08:51:43 437.445
COMPASS 1 02 Oct 08:45:29 08:49:30 39° 97° (E) 08:53:30 437.405
Cosmos 2504 02 Oct 08:45:34 08:51:49 31° 353° (N) 08:58:16 435.465 / 435.565
UNISAT 6 02 Oct 08:56:39 09:00:56 89° 75° (ENE) 09:05:19 437.425
DUCHIFAT 1 02 Oct 09:02:22 09:06:14 38° 47° (NE) 09:10:08 145.980
CINEMA 3 02 Oct 09:02:42 09:06:54 82° 111° (ESE) 09:11:07 145.822/145.860
YUBILEINY 02 Oct 09:04:07 09:12:07 37° 14° (NNE) 09:20:05 435.215
BRITE-PL 02 Oct 09:05:55 09:10:28 33° 323° (NW) 09:14:42 437.365/2234.400
QB50P1 02 Oct 09:09:55 09:13:54 43° 50° (NE) 09:17:54 145.935-145.965
STRAND 1 02 Oct 09:16:20 09:18:31 13° 291° (WNW) 09:20:42 437.568
FUNcube-1 02 Oct 09:17:27 09:21:22 33° 94° (E) 09:25:21 145.935
ITAMSAT 1 02 Oct 09:18:02 09:22:06 24° 2° (N) 09:26:10 435.822/435.867
SEEDS 02 Oct 09:23:28 09:27:47 77° 109° (ESE) 09:32:04 437.485
POPSAT HIP 1 02 Oct 09:23:50 09:27:53 49° 53° (NE) 09:31:58 437.405
GONETS M04 02 Oct 09:27:18 09:36:14 84° 294° (WNW) 09:45:09
CUSAT 1 02 Oct 09:29:03 09:29:41 10° 320° (NW) 09:30:18 437.405
O/OREOS (USA 219) 02 Oct 09:29:34 09:34:12 81° 336° (NNW) 09:38:52 437.305
CUTE 1.7 + AOD 2 02 Oct 09:31:18 09:35:39 83° 292° (WNW) 09:39:59 437.475
AAUSAT CUBESAT 2 02 Oct 09:31:37 09:35:50 63° 106° (ESE) 09:40:01 437.432
ANTELSAT 02 Oct 09:32:02 09:36:16 61° 254° (WSW) 09:40:35 437.575/2403.000
CANX-2 02 Oct 09:33:37 09:37:57 76° 296° (WNW) 09:42:16 2200.000
Cosmos 2491 02 Oct 09:34:10 09:36:08 11° 23° (NNE) 09:38:06 435.465 / 435.565
NANOSAT C BR1 02 Oct 09:36:34 09:40:40 55° 55° (NE) 09:44:47 145.865
CUBEBUG 2 02 Oct 09:36:48 09:41:02 66° 107° (ESE) 09:45:23 437.445
HUMSAT D 02 Oct 09:39:15 09:42:29 21° 85° (E) 09:45:43 437.325/437.525
PCSat 02 Oct 09:40:03 09:45:23 57° 204° (SSW) 09:50:43 145.827
NOAA 15 02 Oct 09:41:42 09:46:40 40° 322° (NW) 09:51:35 137.62
Cosmos 2499 02 Oct 09:43:25 09:50:30 78° 296° (WNW) 09:57:55 435.465 / 435.565
UWE-3 02 Oct 09:44:21 09:48:35 59° 105° (ESE) 09:52:56 435.000/436.395/437.385
AIST 2 02 Oct 09:49:17 09:52:35 23° 220° (SW) 09:55:53 435.215
Gurwin Techsat 1B 02 Oct 09:50:13 09:54:44 29° 24° (NNE) 09:59:16 435.225
Oscar 11 02 Oct 09:50:52 09:55:09 50° 102° (ESE) 09:59:26 145.826/435.025
TIGRISAT 02 Oct 09:51:20 09:55:29 49° 258° (WSW) 09:59:43 435.000
Oscar 19 02 Oct 09:51:35 09:56:13 33° 33° (NNE) 10:00:50 437.125/150
JAS-2 02 Oct 09:56:38 10:03:59 75° 56° (NE) 10:11:52 435.910
NOAA 18 02 Oct 09:57:04 10:02:15 44° 320° (NW) 10:07:25 137.9125
HO-68 02 Oct 09:58:22 10:05:35 90° 347° (NNW) 10:12:48 435.675
ZACube-1 02 Oct 10:02:24 10:06:40 59° 105° (ESE) 10:11:01 437.345
DANDE 02 Oct 10:02:29 10:05:43 13° 314° (NW) 10:08:59 436.750
ESTCUBE 1 02 Oct 10:04:10 10:06:03 12° 72° (ENE) 10:07:56 437.505/2401.250
DOVE 4 02 Oct 10:04:35 10:08:24 31° 319° (NW) 10:12:05 437.250
QB50P2 02 Oct 10:04:44 10:08:58 80° 62° (ENE) 10:13:13 145.880/145.840
LilacSat-2 02 Oct 10:05:54 10:08:47 21° 326° (NNW) 10:11:41 437.200
POLYITAN 1 02 Oct 10:06:54 10:11:07 80° 64° (ENE) 10:15:21 437.675
GOMX 1 02 Oct 10:08:19 10:12:08 25° 329° (NNW) 10:15:45 467.674
DELFI C3 02 Oct 10:09:06 10:12:56 39° 98° (E) 10:16:44 145.870
AO-7 02 Oct 10:12:28 10:20:17 48° 5° (N) 10:28:06 29.400- 29.500
CUTE-I 02 Oct 10:14:20 10:19:08 35° 327° (NNW) 10:23:57 437.470
HORYU 2 02 Oct 10:15:45 10:18:58 20° 344° (NNW) 10:22:12 437.375
Cubesat XI-IV 02 Oct 10:15:49 10:20:36 35° 328° (NNW) 10:25:25 437.490
PRISM 02 Oct 10:15:49 10:17:55 13° 282° (WNW) 10:20:01 437.425
AIST 1 02 Oct 10:18:24 10:21:01 15° 2° (N) 10:23:36
BUGSAT 1 02 Oct 10:19:19 10:23:19 57° 57° (ENE) 10:27:17 437.445
COMPASS 1 02 Oct 10:21:07 10:25:21 65° 299° (WNW) 10:29:33 437.405
UNISAT 6 02 Oct 10:34:29 10:38:13 29° 269° (W) 10:42:01 437.425
AISAT 02 Oct 10:35:31 10:37:13 12° 73° (ENE) 10:38:54 437.250
DUCHIFAT 1 02 Oct 10:37:36 10:41:47 76° 248° (WSW) 10:46:00 145.980
CINEMA 3 02 Oct 10:40:04 10:43:52 35° 314° (NW) 10:47:42 145.822/145.860
Cosmos 2504 02 Oct 10:40:57 10:47:30 35° 24° (NNE) 10:54:17 435.465 / 435.565
BRITE-PL 02 Oct 10:44:01 10:47:53 22° 347° (NNW) 10:51:32 437.365/2234.400
QB50P1 02 Oct 10:45:27 10:49:38 65° 252° (WSW) 10:53:51 145.935-145.965
FUNcube-1 02 Oct 10:53:44 10:58:02 79° 296° (WNW) 11:02:26 145.935
DX 1 02 Oct 10:53:47 10:55:03 11° 72° (ENE) 10:56:18 434.975-435.025
ITAMSAT 1 02 Oct 10:56:01 11:00:28 30° 26° (NNE) 11:04:58 435.822/435.867
SEEDS 02 Oct 10:59:21 11:03:19 38° 312° (NW) 11:07:18 437.485
POPSAT HIP 1 02 Oct 10:59:36 11:03:44 55° 255° (WSW) 11:07:54 437.405
YUBILEINY 02 Oct 11:02:29 11:11:02 53° 44° (NE) 11:19:32 435.215
AAUSAT CUBESAT 2 02 Oct 11:07:15 11:11:17 44° 308° (NW) 11:15:17 437.432
CUTE 1.7 + AOD 2 02 Oct 11:07:20 11:11:11 32° 317° (NW) 11:15:01 437.475
CUBEBUG 1 02 Oct 11:08:53 11:12:05 20° 83° (E) 11:15:17 437.445
O/OREOS (USA 219) 02 Oct 11:09:22 11:13:59 63° 360° (N) 11:18:36 437.305
CANX-2 02 Oct 11:09:39 11:13:26 30° 319° (NW) 11:17:12 2200.000
ANTELSAT 02 Oct 11:10:45 11:13:53 19° 277° (W) 11:17:03 437.575/2403.000
NANOSAT C BR1 02 Oct 11:12:29 11:16:33 47° 258° (WSW) 11:20:39 145.865
CUBEBUG 2 02 Oct 11:13:37 11:17:38 42° 309° (NW) 11:21:44 437.445
HUMSAT D 02 Oct 11:14:39 11:18:54 65° 107° (ESE) 11:23:10 437.325/437.525
VELOX 1 02 Oct 11:17:54 11:21:06 19° 83° (E) 11:24:16 145.980
UWE-3 02 Oct 11:21:00 11:25:06 47° 307° (NW) 11:29:17 435.000/436.395/437.385
NOAA 15 02 Oct 11:21:10 11:25:31 26° 346° (NNW) 11:29:51 137.62
PCSat 02 Oct 11:23:22 11:28:07 31° 228° (SW) 11:32:52 145.827
Cosmos 2491 02 Oct 11:23:31 11:29:23 20° 52° (NE) 11:35:15 435.465 / 435.565
SPROUT 02 Oct 11:25:56 11:28:36 16° 79° (E) 11:31:16 437.525
Oscar 11 02 Oct 11:27:09 11:31:26 55° 304° (NW) 11:35:43 145.826/435.025
Gurwin Techsat 1B 02 Oct 11:28:49 11:33:58 52° 48° (NE) 11:39:09 435.225
Oscar 19 02 Oct 11:29:53 11:35:03 69° 57° (ENE) 11:40:14 437.125/150
TIGRISAT 02 Oct 11:30:34 11:33:14 16° 281° (W) 11:35:56 435.000
